Location: McFarlands Corners
(41.4117°N, 81.3382°W)
Time: 13:58:36
(UTC+00:00)

Courier 1B Rocket - Pass Details

Date: 16 February 2026
Orbit: 920 x 1201 km, 28.2° (Epoch: 10 March)

Event Time Altitude Azimuth Distance (km) Brightness Sun altitude
Rises 04:01:50 0° 250° (WSW) 3,648 - -54.0°
Reaches altitude 10° 04:04:52 10° 238° (WSW) 2,741 - -54.3°
Maximum altitude 04:10:11 26° 185° (S) 1,914 - -55.0°
Drops below altitude 10° 04:15:48 10° 132° (SE) 2,904 - -55.7°
Sets 04:19:07 0° 120° (ESE) 3,911 - -56.0°
